indice_tiempo,pib_agropecuario,pib_industria,pib_servicios,pib_pib,pib_consumo,pib_gasto_publico,pib_inversion_privada,pib_exportaciones,pib_importaciones
1995-01-01,8134.0,39568.0,88378.0,156930.0,100057.0,35636.0,31363.0,10401.0,13788.0
1995-04-01,7916.0,43712.0,96339.0,170781.0,104893.0,35651.0,33786.0,12493.0,16184.0
1995-07-01,10949.0,42078.0,105049.0,180260.0,115704.0,36905.0,32139.0,14260.0,16032.0
1995-10-01,8556.0,44221.0,121171.0,197670.0,120058.0,40242.0,32008.0,14053.0,15916.0
1996-01-01,9316.4,38456.73,100853.26,170920.0,108013.04,35503.23,33266.71,12645.25,13696.72
1996-04-01,9332.39,40401.9,103181.1,176708.75,112161.27,36962.56,36227.64,13904.32,16388.47
1996-07-01,9561.62,46061.39,108484.08,189844.26,117771.28,38783.5,37688.09,14175.08,19098.5
1996-10-01,8216.42,41759.92,107247.95,184112.94,126373.4,33802.57,37749.32,12205.4,21306.45
1997-01-01,9966.15,39718.82,102783.99,176732.25,116539.91,35940.99,37012.82,12583.75,17469.31
1997-04-01,9743.81,43647.68,105502.23,185109.48,118881.66,36670.03,40103.56,15897.84,20292.9
1997-07-01,9702.87,46159.96,109863.14,193244.9,120195.36,36566.73,40895.75,16655.43,22132.61
1997-10-01,7310.16,44445.73,112254.89,190996.04,122784.74,37682.08,39120.16,13625.55,20883.42
1998-01-01,9825.11,39744.85,104221.16,178512.96,115955.51,36380.05,38304.21,13895.03,18841.59
1998-04-01,11018.4,43524.84,107468.87,187904.0,117598.09,37498.74,40965.75,16662.4,19836.49
1998-07-01,10208.15,44909.8,111837.7,193932.08,120234.11,38532.6,40401.41,16632.92,21670.63
1998-10-01,6923.17,42156.67,112994.65,188256.13,121169.4,39179.92,37203.47,14456.4,20383.77
1999-01-01,11061.01,38061.32,107102.53,179883.35,114869.73,36637.39,35087.2,13881.7,15475.85
1999-04-01,11194.74,41602.14,109264.09,187150.99,116884.01,37869.88,36705.13,16493.77,16867.62
1999-07-01,10564.24,43331.4,112829.41,192737.0,120090.83,38951.53,35816.17,17180.64,17602.91
1999-10-01,7632.8,42899.08,115272.42,192336.83,124909.1,40691.7,35343.22,17608.38,18600.21
2000-01-01,11742.77,39804.13,110464.37,187799.48,118332.4,37939.69,34979.76,16753.83,16107.42
2000-04-01,11580.84,43238.9,112885.51,194596.62,121842.09,38367.45,38137.38,18337.91,18100.29
2000-07-01,10722.44,45257.21,117702.2,201534.66,125793.47,38045.58,38249.8,20373.83,20725.45
2000-10-01,7508.42,44912.66,120513.98,201179.53,130011.43,39564.59,38465.32,18079.44,21015.5
2001-01-01,12081.86,41440.69,113142.38,194325.69,123094.5,38350.37,38563.23,18627.93,20018.82
2001-04-01,11932.27,43424.33,116477.94,199123.05,125608.67,39228.97,38914.22,20872.88,20421.98
2001-07-01,11362.28,44071.4,119741.27,202464.13,123496.89,39376.76,38706.35,20987.89,19648.12
2001-10-01,8339.04,43163.76,121729.86,200109.66,127604.85,40987.57,35602.98,19844.89,18389.9
2002-01-01,12651.49,40476.86,116465.08,195252.46,123387.61,39987.65,35506.38,17775.65,16298.38
2002-04-01,12808.58,44430.15,119373.48,203699.3,126482.09,40846.07,37249.83,18561.81,17045.84
2002-07-01,12689.83,46604.89,123811.99,210916.41,126844.86,41022.57,38531.54,25214.91,17955.79
2002-10-01,9071.61,47133.62,126150.04,210460.59,129682.02,42115.03,38307.57,23984.3,16735.42
2003-01-01,14596.25,40504.89,118597.11,200459.9,123366.26,39687.55,36614.94,20382.37,15541.82
2003-04-01,14529.4,43545.37,120434.56,205290.68,123902.2,40949.62,34706.9,23649.48,16345.38
2003-07-01,12876.2,47493.28,124393.93,212237.13,125916.59,41846.1,35878.44,25611.17,17292.51
2003-10-01,9142.03,47287.09,127190.82,211699.59,130446.62,44105.94,36434.41,25316.3,18526.77
2004-01-01,14598.08,43492.96,122535.25,208233.9,124484.6,41136.01,36948.27,24101.37,17139.64
2004-04-01,14820.67,47425.77,127144.54,218240.94,127753.59,43595.03,38851.22,26732.04,18350.23
2004-07-01,13462.55,51687.52,130883.63,226157.35,132070.34,43653.37,40965.46,29120.95,19537.18
2004-10-01,9282.97,50915.13,134630.69,224844.8,139083.12,44661.87,39059.96,28749.17,19696.56
2005-01-01,15061.81,45320.65,128091.39,216947.08,131105.0,42661.75,37452.43,26483.81,18669.04
2005-04-01,15173.62,49907.33,132517.67,228007.17,133874.73,43851.71,40035.15,29707.05,19876.51
2005-07-01,13193.01,51114.61,135513.43,230940.53,137862.09,44402.03,41319.97,32296.88,21045.82
2005-10-01,9320.11,51038.36,137931.0,229680.21,143693.56,45610.65,40065.77,30699.38,20707.63
2006-01-01,15137.45,46819.53,133994.37,226230.46,137565.5,43927.23,40747.48,28732.33,21430.39
2006-04-01,15123.12,48980.57,137676.44,233213.26,141633.71,44896.8,41478.35,29194.02,22475.91
2006-07-01,14658.92,52414.73,141423.54,241316.2,145155.98,45541.82,43698.13,34770.42,25320.39
2006-10-01,10276.28,53126.48,144090.31,240693.87,151062.94,48446.02,43531.57,32255.93,25335.49
2007-01-01,15721.64,48753.56,141602.13,237982.43,146309.69,45833.56,43681.34,30322.16,25578.05
2007-04-01,15213.67,53265.91,145924.75,248459.01,150376.71,47861.05,46636.12,32942.52,26428.39
2007-07-01,15344.88,56058.85,149023.83,255482.07,153563.72,47760.96,49916.12,35179.43,30227.0
2007-10-01,10707.8,55759.57,153098.37,256675.3,161858.23,48795.19,49475.98,34225.8,30822.82
2008-01-01,16470.17,52235.95,149089.55,252635.97,156783.24,47196.3,48935.18,29789.8,29534.9
2008-04-01,16896.6,56055.53,154362.11,264201.68,160955.12,48081.17,52995.23,34884.12,32662.26
2008-07-01,16114.44,59852.9,158276.31,273316.79,166398.6,49640.06,58877.97,36352.75,36712.6
2008-10-01,10795.53,54460.03,156365.9,259314.94,167539.7,49223.94,52210.7,32186.18,33395.13
2009-01-01,16239.2,46596.59,150556.71,246506.89,160352.12,48697.32,44291.13,25584.92,25705.42
2009-04-01,15965.34,51588.38,155422.2,258381.35,167342.96,49120.59,48603.69,31421.39,28547.54
2009-07-01,14905.96,56406.96,160510.13,270139.07,173836.65,49792.75,56607.93,32922.01,32465.82
2009-10-01,10918.72,57544.99,164379.74,273121.71,179186.22,52248.61,58970.77,30966.25,35528.34
2010-01-01,17354.76,53729.69,159910.96,269207.94,172316.6,50142.04,57135.8,29546.67,35718.17
2010-04-01,17570.58,58291.93,164788.05,280389.6,176376.54,51645.97,59745.66,33641.4,38867.42
2010-07-01,15731.54,61098.77,169699.05,288798.01,183014.93,52200.54,65246.02,36716.88,44564.72
2010-10-01,11258.52,60661.01,173084.15,288660.51,191414.34,53706.52,63566.73,35160.55,44219.56
2011-01-01,18286.92,56818.83,167436.21,283193.6,183360.33,51438.18,61836.96,30798.27,39889.95
2011-04-01,17697.64,61277.71,171954.9,293569.31,188065.18,53343.97,64604.28,35828.54,44344.73
2011-07-01,16938.6,63520.13,174480.04,299013.79,190260.41,53122.73,69004.4,38349.47,47202.76
2011-10-01,12483.43,61783.24,176691.41,296073.32,196279.85,54368.41,67039.43,36588.51,47278.19
2012-01-01,16233.61,58175.43,171071.29,288028.3,188825.75,52511.51,63779.87,32442.89,42513.2
2012-04-01,17669.32,59324.46,176093.46,296465.31,192241.52,54474.31,65322.89,35433.07,45442.94
2012-07-01,17740.9,63227.56,180213.67,306445.54,197728.37,54153.44,67979.49,36980.72,44638.77
2012-10-01,11746.77,60913.1,183230.56,303424.17,205694.76,55967.5,67447.0,37709.88,48141.73
2013-01-01,19725.81,57345.18,175831.82,295865.83,196074.81,52446.56,65664.21,30833.89,45412.82
2013-04-01,19463.89,61963.78,181544.37,308388.67,200152.07,55112.59,70867.77,37513.8,48451.28
2013-07-01,17265.24,65038.86,185153.47,314900.22,204597.96,55496.24,72974.71,37901.49,49649.89
2013-10-01,12236.02,62527.2,187648.26,311097.1,210895.57,57329.94,70437.21,38926.76,49277.2
2014-01-01,21085.83,59573.78,180768.05,306130.51,203075.27,53514.67,68397.14,31576.51,45383.04
2014-04-01,19500.15,59771.61,182746.39,307046.34,203223.87,55795.37,66335.04,37152.64,46409.44
2014-07-01,17446.98,62728.97,185875.57,312888.66,206858.45,56071.1,67539.99,39448.1,49970.71
2014-10-01,12575.04,61077.34,187983.1,310386.25,216829.12,56796.12,65846.71,34719.9,46647.98
2015-01-01,22590.91,57105.57,178582.06,301173.01,201796.67,53311.44,61943.27,32882.16,42971.18
2015-04-01,20376.09,56924.12,178694.8,298632.12,198798.48,54885.75,58205.62,40424.12,41258.17
2015-07-01,17408.83,59121.89,179562.96,299550.71,198758.3,55073.07,57462.23,40290.03,40059.3
2015-10-01,12572.34,55990.93,180375.28,293254.26,203936.8,55715.27,53114.56,39045.8,37385.77
2016-01-01,20865.86,52862.54,172845.26,285698.02,190467.65,53237.23,50335.79,36872.7,33649.34
2016-04-01,19295.0,54703.79,174854.31,289020.65,189890.42,55178.9,51972.78,41485.34,36863.7
2016-07-01,16639.35,57090.29,176644.36,292199.17,193065.79,55051.07,51376.44,39883.24,37276.64
2016-10-01,12336.98,54022.55,176939.35,286623.34,199042.54,55980.38,49054.04,35718.32,37162.87
2017-01-01,25118.92,51842.16,170728.23,286503.68,189426.85,52396.25,47670.99,37437.81,37474.18
2017-04-01,22399.94,53457.68,175350.76,291296.6,192827.22,54668.16,48000.21,42341.45,36409.46
2017-07-01,18375.35,56881.62,179269.86,296993.3,199078.14,54625.52,50889.7,42842.29,40066.45
2017-10-01,13027.56,55402.72,181303.9,294007.44,206413.29,56285.85,50993.39,38895.61,40738.84
2018-01-01,24453.43,52527.68,175363.67,291961.51,196404.38,52924.2,49268.66,39326.68,40244.15
2018-04-01,22578.55,54081.77,178888.33,296007.16,196985.41,55349.99,49895.72,41296.69,38464.51
2018-07-01,19256.97,57456.11,182989.13,303101.87,202952.85,55491.91,55580.64,43902.35,45342.05
2018-10-01,13664.37,55078.66,184160.48,298578.0,210040.15,55924.91,53144.84,43537.86,42615.43
2019-01-01,24574.31,51749.69,178191.83,294593.02,200856.69,52718.19,50725.03,38484.45,39159.51
2019-04-01,22757.73,53881.85,181202.74,299477.97,201782.95,55088.06,53583.59,41529.15,40378.13
2019-07-01,19438.74,57046.23,185164.01,306464.95,208235.05,54842.32,58283.99,42358.98,46427.64
2019-10-01,13514.37,54998.09,187751.35,303635.56,216436.5,55974.33,53667.04,41386.19,42921.81
2020-01-01,26326.05,51120.34,178758.47,295812.57,201625.42,52654.87,54279.06,37428.61,41415.75
2020-04-01,24004.68,46795.01,163529.33,269117.78,179216.38,50754.28,45796.39,41646.03,34636.61
2020-07-01,19771.14,57072.16,177602.53,297161.63,197526.29,52414.09,53143.58,41699.65,34988.39
2020-10-01,13534.85,56221.4,185045.07,302621.73,211183.01,54734.69,59262.64,39232.92,41841.52
2021-01-01,27370.53,54301.35,177848.08,300988.64,198619.3,51553.89,60620.53,37284.63,44953.05
2021-04-01,23554.03,55564.38,181186.56,302479.09,196537.57,54883.19,58001.84,46822.51,42386.39
2021-07-01,18423.49,57885.22,187845.52,309680.93,205039.33,55602.59,61006.81,42730.21,43031.6
2021-10-01,14291.56,54092.98,191912.94,307035.75,212706.87,57304.04,60277.76,40181.78,43535.67
2022-01-01,25553.87,53051.76,184515.23,305423.35,202049.26,53623.8,57038.0,40512.59,40352.7
2022-04-01,23337.24,56164.42,189757.62,313198.51,207296.01,55885.83,59158.76,44910.1,42369.14
2022-07-01,20048.88,59413.27,197182.27,323064.76,214782.71,57074.43,64101.51,46199.32,47737.65
2022-10-01,13758.18,56588.36,198786.09,315307.04,222473.33,57451.81,62222.39,44988.77,45101.93
2023-01-01,31416.41,53857.62,190523.86,318315.84,210022.52,53936.59,57861.99,43401.24,41093.66
2023-04-01,28223.79,56738.79,194906.33,324060.44,213651.62,57150.67,58107.35,50247.67,42877.19
2023-07-01,21807.78,59984.94,200721.37,329395.94,221803.8,57514.28,59766.08,50814.36,44805.83
2023-10-01,13754.97,58226.17,202531.76,321780.84,227555.77,59176.48,59498.09,48282.98,44695.07
